Date,TemperatureHighF,TemperatureAvgF,TemperatureLowF,DewpointHighF,DewpointAvgF,DewpointLowF,HumidityHigh,HumidityAvg,HumidityLow,PressureMaxIn,PressureMinIn,WindSpeedMaxMPH,WindSpeedAvgMPH,GustSpeedMaxMPH,PrecipitationSumIn
2013-2-1,23,4,-8,14,-7,-17,71,55,42,30.57,30.11,15,6,21,0.00
2013-2-2,32,18,12,28,10,0,97,71,49,30.32,30.03,21,6,33,0.00
2013-2-3,36,24,13,28,13,6,88,64,43,30.28,29.88,27,8,36,0.00
2013-2-4,28,22,17,18,14,10,81,71,52,30.14,29.86,11,3,17,0.00
2013-2-5,40,30,21,30,23,15,89,78,64,30.22,29.87,17,6,28,0.00
2013-2-6,40,30,17,33,25,14,90,81,71,30.25,29.98,14,4,21,0.00
2013-2-7,36,31,27,34,29,22,99,93,82,30.30,29.96,18,6,28,0.05
2013-2-8,30,27,24,23,21,19,86,79,69,30.47,30.30,14,5,21,0.00
2013-2-9,27,27,27,22,22,22,84,84,84,30.34,30.34,7,7,11,0.00
2013-2-10,45,37,30,43,35,24,99,91,71,29.62,29.30,25,11,38,0.05
2013-2-11,31,28,26,27,20,17,89,71,64,30.22,29.62,34,15,46,0.00
2013-2-12,48,32,22,25,21,17,85,64,34,30.24,29.94,16,4,21,0.00
2013-2-13,52,37,25,31,27,21,89,68,39,29.95,29.71,11,4,17,0.00
2013-2-14,39,33,22,30,25,11,83,72,60,30.30,29.75,24,11,35,0.00
2013-2-15,28,20,14,11,8,2,74,60,42,30.44,30.30,17,9,24,0.00
2013-2-16,41,22,10,18,11,4,79,62,27,30.43,30.16,10,3,14,0.00
2013-2-17,43,30,18,23,18,12,79,63,43,30.21,29.71,19,9,27,0.00
2013-2-18,41,29,13,31,20,3,92,69,58,30.03,29.63,30,13,46,0.00
2013-2-19,20,11,1,5,-3,-9,70,54,39,30.55,30.03,30,16,43,0.00
2013-2-20,30,13,-2,8,-3,-10,65,49,24,30.59,30.41,10,3,16,0.00
2013-2-21,27,20,15,20,11,6,90,69,48,30.46,29.97,17,8,28,0.00
2013-2-22,28,23,17,23,18,11,92,80,67,30.09,29.88,16,6,24,0.05
2013-2-23,36,20,8,17,11,4,83,68,42,30.10,29.96,11,3,18,0.00
2013-2-24,42,25,10,25,16,5,84,70,46,30.18,30.06,7,2,10,0.00
2013-2-25,44,33,26,26,24,22,87,73,47,30.19,30.00,7,2,10,0.00
2013-2-26,33,30,28,31,27,22,99,89,74,30.01,29.80,11,4,21,0.00
2013-2-27,31,27,24,26,23,19,97,85,72,30.09,29.87,19,10,30,0.00
2013-2-28,32,26,20,23,20,15,84,78,65,30.27,30.08,16,8,23,0.00